Date,TemperatureHighF,TemperatureAvgF,TemperatureLowF,DewpointHighF,DewpointAvgF,DewpointLowF,HumidityHigh,HumidityAvg,HumidityLow,PressureMaxIn,PressureMinIn,WindSpeedMaxMPH,WindSpeedAvgMPH,GustSpeedMaxMPH,PrecipitationSumIn
2013-8-1,0,0,0,0,0,0,0,0,100,27.49,27.40,8,1,8,0.51
2013-8-2,0,0,0,0,0,0,0,0,100,27.55,27.46,6,1,6,0.51
2013-8-3,0,0,0,0,0,0,0,0,100,27.55,27.49,5,0,5,0.51
2013-8-4,0,0,0,0,0,0,0,0,100,27.55,27.49,9,1,9,0.51
2013-8-5,82,21,0,71,18,0,84,20,8,27.55,27.46,10,1,10,0.51
2013-8-6,86,74,67,72,68,63,98,84,58,27.55,27.46,6,1,6,0.00
2013-8-7,74,70,68,73,70,67,98,98,98,27.58,27.49,7,1,7,0.94
2013-8-8,81,72,66,79,71,66,98,97,93,27.64,27.52,6,0,6,0.12
2013-8-9,84,73,67,80,72,66,98,94,75,27.91,27.55,8,0,8,0.31
2013-8-10,83,72,66,79,71,66,98,98,85,28.11,27.61,6,0,6,0.71
2013-8-11,86,72,65,78,71,64,98,95,75,28.44,27.67,6,0,6,0.24
2013-8-12,85,72,66,80,70,66,98,95,69,28.50,27.58,8,0,8,0.08
2013-8-13,82,71,66,77,69,66,98,96,75,28.50,27.61,8,0,8,0.08
2013-8-14,78,68,63,68,63,58,98,84,57,30.65,27.67,6,1,6,0.08
2013-8-15,72,65,59,63,60,58,98,83,62,31.01,28.11,6,1,6,0.08
2013-8-16,76,65,57,63,59,56,98,84,55,31.01,29.85,6,1,6,0.00
2013-8-17,74,64,60,64,61,57,98,89,63,31.01,31.01,6,0,6,0.12
2013-8-18,78,67,62,72,66,61,98,94,78,31.01,31.01,8,0,8,0.12
2013-8-19,76,68,64,73,67,63,98,95,81,31.01,31.01,5,0,5,1.54
2013-8-20,79,70,64,73,68,64,98,95,77,31.01,31.01,6,0,6,0.00
2013-8-21,76,70,66,74,69,65,98,97,91,31.01,31.01,5,0,5,0.00
2013-8-22,84,70,63,75,68,62,98,93,66,31.01,31.01,6,0,6,0.00
2013-8-23,85,70,62,75,66,61,98,88,55,31.01,30.86,6,0,6,0.00
2013-8-24,83,70,62,68,64,58,98,81,48,31.01,31.01,8,1,8,0.00
2013-8-25,82,67,56,67,59,56,98,79,43,31.01,31.01,7,1,7,0.00
2013-8-26,82,67,56,66,60,55,98,80,49,31.01,31.01,8,1,8,0.00
2013-8-27,84,71,59,72,65,58,98,83,57,31.01,31.01,10,1,10,0.00
2013-8-28,87,75,67,72,69,66,98,83,54,31.01,31.01,7,1,7,0.00
2013-8-29,89,76,68,74,70,67,98,83,56,31.01,31.01,10,1,10,0.00
2013-8-30,82,73,69,75,71,68,98,94,74,31.01,31.01,6,0,6,0.08
2013-8-31,86,73,66,77,70,65,98,93,63,31.01,31.01,15,0,15,0.16